Location: Newark
(35.8833°N, 14.5000°E)
Time: 09:38:48
(UTC+00:00)

Oscar 19 - Visible Passes

Search period start: 23 May 2019 00:00
Search period end: 02 June 2019 00:00
Orbit: 774 x 790 km, 98.6° (Epoch: 22 May)

Date Brightness Start Highest point End Pass type
(mag) Time Alt. Az. Time Alt. Az. Time Alt. Az.
23 May 11.4 00:28:37 10° NNE 00:33:23 42° E 00:33:23 42° E visible
23 May 12.1 02:08:44 10° NNW 02:12:29 21° WNW 02:13:56 18° W visible
23 May 12.5 23:57:40 10° NE 00:01:09 20° E 00:01:09 20° E visible
24 May 11.2 01:36:03 10° N 01:40:52 41° WNW 01:41:42 38° W visible
25 May 10.4 01:03:54 10° NNE 01:09:06 85° WNW 01:09:27 77° SW visible
26 May 11.3 00:32:13 10° NNE 00:37:11 46° E 00:37:13 46° E visible
26 May 12.2 02:12:32 10° NNW 02:16:05 19° WNW 02:17:46 16° W visible
27 May 12.4 00:01:10 10° NE 00:04:58 22° E 00:04:58 22° E visible
27 May 11.3 01:39:45 10° N 01:44:30 38° WNW 01:45:32 34° W visible
28 May 10.5 01:07:34 10° N 01:12:45 78° WNW 01:13:17 69° SW visible
29 May 11.1 00:35:50 10° NNE 00:40:50 50° E 00:41:02 50° ESE visible
29 May 12.3 02:16:21 10° NNW 02:19:43 18° WNW 02:21:35 15° W visible
30 May 12.3 00:04:41 10° NE 00:08:47 24° E 00:08:47 24° E visible
30 May 11.5 01:43:29 10° N 01:48:07 35° WNW 01:49:20 31° W visible
30 May 13.1 23:35:21 10° ENE 23:36:32 11° E 23:36:32 11° E visible
31 May 10.5 01:11:14 10° N 01:16:23 72° WNW 01:17:05 63° SW visible
01 Jun 11.0 00:39:27 10° NNE 00:44:30 54° E 00:44:50 53° ESE visible
01 Jun 12.4 02:20:12 10° NNW 02:23:19 16° WNW 02:25:23 13° W visible
